• In Uzbekistan
  • List of Countries
  • For 7 days
  • Water Temperature
  • Satellite Maps
  • Weather Map
  • Weather Widgets
  • user-avatar
    Login

    Hourly Weather Mbandaka

    Today, 19 July, Thursday

    Time Temperature Precipitation Wind Pressure Humidity
    00:00 +25°C° 0.1 mm 1 mps 733 mmHg 89%
    01:00 +25°C° 0.1 mm 1 mps 733 mmHg 90%
    02:00 +25°C° 0.1 mm 1 mps 732 mmHg 90%
    03:00 +23°C° 0.1 mm 0 mps 732 mmHg 90%
    04:00 +23°C° 0.1 mm 0 mps 732 mmHg 90%
    05:00 +23°C° 0.1 mm 0 mps 732 mmHg 90%
    06:00 +23°C° 0.1 mm 0 mps 732 mmHg 89%
    07:00 +25°C° 0.1 mm 1 mps 733 mmHg 89%
    08:00 +27°C° 0 mm 1 mps 733 mmHg 82%
    09:00 +28°C° 0 mm 1 mps 733 mmHg 74%
    10:00 +30°C° 0 mm 1 mps 733 mmHg 67%
    11:00 +31°C° 0.1 mm 1 mps 732 mmHg 59%
    12:00 +34°C° 0.1 mm 2 mps 732 mmHg 51%
    13:00 +35°C° 0.1 mm 2 mps 732 mmHg 44%
    14:00 +34°C° 0 mm 1 mps 731 mmHg 46%
    15:00 +33°C° 0 mm 1 mps 731 mmHg 48%
    16:00 +32°C° 0 mm 1 mps 730 mmHg 50%
    17:00 +31°C° 0 mm 1 mps 730 mmHg 55%
    18:00 +29°C° 0 mm 1 mps 730 mmHg 61%
    19:00 +26°C° 0 mm 0 mps 730 mmHg 66%
    20:00 +25°C° 0 mm 0 mps 731 mmHg 67%
    21:00 +25°C° 0 mm 0 mps 731 mmHg 68%
    22:00 +24°C° 0 mm 0 mps 732 mmHg 70%
    23:00 +24°C° 0 mm 0 mps 732 mmHg 72%

    Tomorrow, 20 July, Friday

    Time Temperature Precipitation Wind Pressure Humidity
    00:00 +23°C° 0 mm 0 mps 732 mmHg 74%
    01:00 +25°C° 0 mm 1 mps 731 mmHg 76%
    02:00 +24°C° 0 mm 1 mps 731 mmHg 79%
    03:00 +24°C° 0 mm 1 mps 731 mmHg 82%
    04:00 +24°C° 0 mm 1 mps 731 mmHg 84%
    05:00 +24°C° 0 mm 1 mps 731 mmHg 84%
    06:00 +25°C° 0 mm 1 mps 731 mmHg 83%
    07:00 +25°C° 0 mm 1 mps 732 mmHg 82%
    08:00 +28°C° 0 mm 1 mps 732 mmHg 72%
    09:00 +30°C° 0 mm 1 mps 733 mmHg 62%
    10:00 +34°C° 0 mm 2 mps 733 mmHg 53%
    11:00 +34°C° 0 mm 1 mps 732 mmHg 47%
    12:00 +36°C° 0 mm 1 mps 732 mmHg 42%
    13:00 +37°C° 0 mm 1 mps 731 mmHg 37%
    14:00 +36°C° 0 mm 1 mps 730 mmHg 39%
    15:00 +35°C° 0 mm 1 mps 730 mmHg 41%
    16:00 +34°C° 0 mm 1 mps 729 mmHg 44%
    17:00 +33°C° 0 mm 1 mps 729 mmHg 49%
    18:00 +31°C° 0 mm 1 mps 730 mmHg 53%
    19:00 +30°C° 0 mm 1 mps 730 mmHg 58%
    20:00 +29°C° 0 mm 1 mps 731 mmHg 61%
    21:00 +28°C° 0 mm 1 mps 731 mmHg 64%
    22:00 +28°C° 0 mm 1 mps 732 mmHg 67%
    23:00 +27°C° 0 mm 1 mps 732 mmHg 70%

    Day after tomorrow, 21 July, Saturday

    Time Temperature Precipitation Wind Pressure Humidity
    00:00 +27°C° 0 mm 1 mps 732 mmHg 73%
    01:00 +26°C° 0 mm 1 mps 731 mmHg 76%
    02:00 +25°C° 0 mm 1 mps 731 mmHg 80%
    03:00 +25°C° 0 mm 1 mps 731 mmHg 84%
    04:00 +24°C° 0 mm 1 mps 731 mmHg 88%
    05:00 +25°C° 0 mm 1 mps 731 mmHg 86%
    06:00 +25°C° 0 mm 1 mps 731 mmHg 84%
    07:00 +26°C° 0 mm 1 mps 732 mmHg 82%
    08:00 +28°C° 0 mm 1 mps 732 mmHg 71%
    09:00 +31°C° 0 mm 1 mps 733 mmHg 61%
    10:00 +33°C° 0 mm 1 mps 733 mmHg 50%
    11:00 +36°C° 0 mm 1 mps 732 mmHg 44%
    12:00 +39°C° 0 mm 1 mps 732 mmHg 38%
    13:00 +38°C° 0 mm 0 mps 731 mmHg 32%
    14:00 +36°C° 0 mm 0 mps 731 mmHg 36%
    15:00 +34°C° 0 mm 0 mps 730 mmHg 40%
    16:00 +32°C° 0 mm 0 mps 730 mmHg 44%
    17:00 +31°C° 0 mm 0 mps 730 mmHg 48%
    18:00 +30°C° 0 mm 0 mps 731 mmHg 52%
    19:00 +29°C° 0 mm 0 mps 731 mmHg 55%
    20:00 +28°C° 0.1 mm 0 mps 731 mmHg 59%
    21:00 +27°C° 0.1 mm 0 mps 732 mmHg 63%
    22:00 +26°C° 0.1 mm 0 mps 732 mmHg 67%
    23:00 +25°C° 0.2 mm 0 mps 732 mmHg 70%

    22 July, Sunday

    Time Temperature Precipitation Wind Pressure Humidity
    00:00 +25°C° 0.2 mm 0 mps 732 mmHg 73%
    01:00 +24°C° 0.2 mm 0 mps 731 mmHg 77%
    02:00 +23°C° 0.7 mm 0 mps 731 mmHg 82%
    03:00 +25°C° 0.7 mm 1 mps 731 mmHg 87%
    04:00 +24°C° 0.7 mm 1 mps 731 mmHg 92%
    05:00 +24°C° 0 mm 1 mps 731 mmHg 91%
    06:00 +25°C° 0 mm 1 mps 732 mmHg 90%
    07:00 +25°C° 0 mm 1 mps 732 mmHg 89%
    08:00 +26°C° 0 mm 1 mps 733 mmHg 86%
    09:00 +27°C° 0 mm 1 mps 733 mmHg 83%
    10:00 +27°C° 0 mm 1 mps 733 mmHg 81%
    11:00 +30°C° 0.1 mm 1 mps 732 mmHg 70%
    12:00 +32°C° 0.1 mm 2 mps 732 mmHg 59%
    13:00 +35°C° 0.1 mm 2 mps 731 mmHg 49%
    14:00 +35°C° 0 mm 1 mps 731 mmHg 47%
    15:00 +35°C° 0 mm 1 mps 730 mmHg 44%
    16:00 +35°C° 0 mm 1 mps 730 mmHg 42%
    17:00 +33°C° 0.2 mm 1 mps 730 mmHg 50%
    18:00 +31°C° 0.2 mm 1 mps 731 mmHg 58%
    19:00 +29°C° 0.2 mm 1 mps 731 mmHg 66%
    20:00 +28°C° 0.4 mm 1 mps 732 mmHg 72%
    21:00 +27°C° 0.4 mm 1 mps 732 mmHg 77%
    22:00 +26°C° 0.4 mm 1 mps 733 mmHg 82%
    23:00 +26°C° 0 mm 1 mps 732 mmHg 83%

    23 July, Monday

    Time Temperature Precipitation Wind Pressure Humidity
    00:00 +26°C° 0 mm 1 mps 732 mmHg 84%
    01:00 +26°C° 0 mm 1 mps 731 mmHg 84%
    02:00 +25°C° 0 mm 1 mps 731 mmHg 86%
    03:00 +25°C° 0 mm 1 mps 731 mmHg 87%
    04:00 +25°C° 0 mm 1 mps 731 mmHg 89%
    05:00 +25°C° 0 mm 1 mps 731 mmHg 88%
    06:00 +26°C° 0 mm 1 mps 732 mmHg 87%
    07:00 +26°C° 0 mm 2 mps 732 mmHg 86%
    08:00 +28°C° 0 mm 2 mps 733 mmHg 76%
    09:00 +30°C° 0 mm 2 mps 733 mmHg 66%
    10:00 +34°C° 0 mm 2 mps 733 mmHg 56%
    11:00 +35°C° 0.2 mm 2 mps 732 mmHg 52%
    12:00 +36°C° 0.2 mm 2 mps 731 mmHg 49%
    13:00 +36°C° 0.2 mm 2 mps 730 mmHg 45%
    14:00 +35°C° 0 mm 1 mps 730 mmHg 45%
    15:00 +35°C° 0 mm 1 mps 730 mmHg 46%
    16:00 +35°C° 0 mm 1 mps 729 mmHg 46%
    17:00 +33°C° 0 mm 1 mps 730 mmHg 51%
    18:00 +31°C° 0 mm 1 mps 730 mmHg 56%
    19:00 +28°C° 0 mm 0 mps 731 mmHg 61%
    20:00 +27°C° 0.2 mm 0 mps 731 mmHg 65%
    21:00 +26°C° 0.2 mm 0 mps 731 mmHg 69%
    22:00 +25°C° 0.2 mm 0 mps 732 mmHg 73%
    23:00 +26°C° 1.3 mm 1 mps 731 mmHg 79%

    24 July, Tuesday

    Time Temperature Precipitation Wind Pressure Humidity
    00:00 +26°C° 1.3 mm 1 mps 731 mmHg 86%
    01:00 +25°C° 1.3 mm 1 mps 731 mmHg 92%
    02:00 +25°C° 0 mm 1 mps 731 mmHg 93%
    03:00 +25°C° 0 mm 1 mps 731 mmHg 94%
    04:00 +25°C° 0 mm 1 mps 730 mmHg 95%
    05:00 +25°C° 0 mm 1 mps 731 mmHg 93%
    06:00 +25°C° 0 mm 1 mps 731 mmHg 92%
    07:00 +25°C° 0 mm 1 mps 732 mmHg 91%
    08:00 +28°C° 0 mm 2 mps 732 mmHg 79%
    09:00 +30°C° 0 mm 2 mps 733 mmHg 68%
    10:00 +32°C° 0 mm 2 mps 733 mmHg 56%
    11:00 +34°C° 0.4 mm 2 mps 732 mmHg 56%
    12:00 +34°C° 0.4 mm 2 mps 732 mmHg 55%
    13:00 +34°C° 0.4 mm 1 mps 731 mmHg 55%
    14:00 +34°C° 0.3 mm 1 mps 730 mmHg 53%
    15:00 +34°C° 0.3 mm 1 mps 730 mmHg 52%
    16:00 +32°C° 0.3 mm 0 mps 730 mmHg 50%
    17:00 +30°C° 0 mm 0 mps 730 mmHg 56%
    18:00 +29°C° 0 mm 0 mps 731 mmHg 61%
    19:00 +27°C° 0 mm 0 mps 731 mmHg 67%
    20:00 +26°C° 0.7 mm 0 mps 731 mmHg 73%
    21:00 +25°C° 0.7 mm 0 mps 732 mmHg 80%
    22:00 +24°C° 0.7 mm 0 mps 732 mmHg 86%
    23:00 +26°C° 0.2 mm 1 mps 732 mmHg 88%
    Show more